CW9865 Weather Reports


time (UTC)temp
C
wind
direction
speed
KPH
gust
KPH
rain 1hr
cm
rain 24hr
cm
rain mn
cm
humidity
%
barometer
mb
20260504050457 6 278 0.0 0.0 0.00 0.00 0.00 73 1009.0
20260504045457 6 278 0.0 0.0 0.00 0.00 0.00 72 1009.1
20260504044957 6 278 0.0 0.0 0.00 0.00 0.00 71 1009.1
20260504044556 6 278 0.0 0.0 0.00 0.00 0.00 71 1010.3
20260504043957 6 278 0.0 0.0 0.00 0.00 0.00 72 1009.4
20260504043457 6 278 0.0 0.0 0.00 0.00 0.00 69 1009.5
20260504043113 6 278 0.0 0.0 0.00 0.00 0.00 69 1010.5
20260504042457 6 278 0.0 0.0 0.00 0.00 0.00 70 1009.6
20260504041956 6 278 0.0 3.2 0.00 0.00 0.00 68 1009.7
20260504041556 6 278 0.0 3.2 0.00 0.00 0.00 68 1010.8
20260504041001 6 278 0.0 3.2 0.00 0.00 0.00 67 1009.9
20260504040457 6 278 0.0 3.2 0.00 0.00 0.00 67 1009.9
20260504040100 6 278 0.0 3.2 0.00 0.00 0.00 65 1010.9
20260504035459 6 278 0.0 3.2 0.00 0.00 0.00 65 1009.9
20260504034559 6 278 0.0 3.2 0.00 0.00 0.00 65 1010.8
20260504034002 6 278 0.0 1.6 0.00 0.00 0.00 65 1009.8
20260504033459 6 278 0.0 3.2 0.00 0.00 0.00 64 1009.8
20260504033121 6 278 0.0 4.8 0.00 0.00 0.00 65 1010.8
20260504032500 6 278 0.0 4.8 0.00 0.00 0.00 65 1009.7
20260504032000 6 278 0.0 4.8 0.00 0.00 0.00 64 1009.6
20260504031601 6 278 0.0 3.2 0.00 0.00 0.00 64 1010.6
20260504030959 6 278 0.0 0.0 0.00 0.00 0.00 64 1009.3
20260504030459 6 278 0.0 3.2 0.00 0.00 0.00 64 1009.3
20260504030118 6 278 0.0 3.2 0.00 0.00 0.00 64 1010.4
20260504030003 6 278 0.0 0.0 0.00 0.00 0.00 64 1010.5
20260504025500 6 278 0.0 0.0 0.00 0.00 0.00 64 1009.3
20260504025005 6 278 0.0 3.2 0.00 0.00 0.00 65 1009.4
20260504024601 6 278 0.0 3.2 0.00 0.00 0.00 65 1010.4
20260504024000 5 278 0.0 1.6 0.00 0.00 0.00 66 1009.4
20260504023500 5 278 0.0 1.6 0.00 0.00 0.00 65 1009.3
20260504023100 5 278 0.0 1.6 0.00 0.00 0.00 65 1010.4
20260504022500 5 278 0.0 3.2 0.00 0.00 0.00 64 1009.3
20260504022000 5 278 0.0 1.6 0.00 0.00 0.00 64 1009.1
20260504021600 5 278 0.0 3.2 0.00 0.00 0.00 65 1010.2
20260504021003 5 278 0.0 3.2 0.00 0.00 0.00 65 1009.1
20260504020501 5 278 0.0 4.8 0.00 0.00 0.00 65 1009.2
20260504020108 5 278 0.0 4.8 0.00 0.00 0.00 64 1010.3
20260504015538 5 278 0.0 3.2 0.00 0.00 0.00 62 1009.2
20260504015000 5 278 0.0 3.2 0.00 0.00 0.00 62 1009.3
20260504014608 5 278 0.0 3.2 0.00 0.00 0.00 61 1010.3
20260504014000 6 278 0.0 3.2 0.00 0.00 0.00 61 1009.1
20260504013500 6 278 0.0 3.2 0.00 0.00 0.00 61 1009.1
20260504013100 6 278 0.0 3.2 0.00 0.00 0.00 61 1010.3
20260504012500 6 278 0.0 3.2 0.00 0.00 0.00 61 1009.3
20260504012000 6 278 0.0 3.2 0.00 0.00 0.00 61 1009.3
20260504010501 6 278 0.0 3.2 0.00 0.00 0.00 56 1009.0
20260504010002 6 278 0.0 3.2 0.00 0.00 0.00 56 1010.0
20260504005459 6 278 0.0 3.2 0.00 0.00 0.00 56 1008.9
20260504005000 6 278 0.0 3.2 0.00 0.00 0.00 56 1008.9
20260504004559 7 278 0.0 3.2 0.00 0.00 0.00 56 1009.9
20260504003501 7 278 0.0 4.8 0.00 0.00 0.00 55 1008.7
20260504003107 7 278 0.0 6.4 0.00 0.00 0.00 54 1009.8
20260504001959 7 281 1.6 6.4 0.00 0.00 0.00 54 1008.8
20260504001602 7 279 0.0 9.7 0.00 0.00 0.00 54 1009.8
20260504000006 7 273 1.6 6.4 0.00 0.00 0.00 49 1008.5
20260504000002 7 273 0.0 6.4 0.00 0.00 0.00 49 1009.7
20260503235459 7 277 1.6 6.4 0.00 0.00 0.00 49 1008.6
20260503234959 7 278 1.6 4.8 0.00 0.00 0.00 49 1008.6
20260503234559 8 288 0.0 6.4 0.00 0.00 0.00 49 1009.7
20260503233959 8 273 1.6 11.3 0.00 0.00 0.00 48 1008.5
20260503233502 8 283 1.6 12.9 0.00 0.00 0.00 47 1008.4
20260503233107 8 284 3.2 12.9 0.00 0.00 0.00 45 1009.4
20260503232459 8 303 1.6 12.9 0.00 0.00 0.00 46 1008.4
20260503232002 8 274 3.2 8.0 0.00 0.00 0.00 46 1008.2
20260503231559 8 281 1.6 12.9 0.00 0.00 0.00 46 1009.3
20260503230504 8 311 3.2 11.3 0.00 0.00 0.00 43 1007.9
20260503230113 9 290 0.0 6.4 0.00 0.00 0.00 44 1009.2
20260503225459 9 246 3.2 12.9 0.00 0.00 0.00 43 1008.1
20260503224704 9 298 1.6 27.4 0.00 0.00 0.00 42 1009.1
20260503224001 9 296 4.8 27.4 0.00 0.00 0.00 40 1007.9
20260503223459 9 294 4.8 24.1 0.00 0.00 0.00 39 1007.9
20260503223113 9 285 4.8 24.1 0.00 0.00 0.00 38 1009.1
20260503221559 10 244 3.2 19.3 0.00 0.00 0.00 38 1008.8
20260503220459 10 258 3.2 19.3 0.00 0.00 0.00 36 1007.6
20260503220101 10 304 1.6 16.1 0.00 0.00 0.00 36 1008.8
20260503220006 10 284 3.2 16.1 0.00 0.00 0.00 36 1008.8
20260503220003 10 284 3.2 16.1 0.00 0.00 0.00 36 1007.6
20260503214959 10 292 3.2 14.5 0.00 0.00 0.00 35 1007.6
20260503214601 10 277 1.6 14.5 0.00 0.00 0.00 35 1008.8
20260503214007 10 304 4.8 20.9 0.00 0.00 0.00 35 1007.6
20260503213503 10 282 4.8 20.9 0.00 0.00 0.00 33 1007.7
20260503213059 10 282 3.2 19.3 0.00 0.00 0.00 34 1008.7
20260503212000 11 291 3.2 16.1 0.00 0.00 0.00 34 1007.6
20260503211002 11 302 4.8 20.9 0.00 0.00 0.00 32 1007.5
20260503210459 11 325 3.2 17.7 0.00 0.00 0.00 32 1007.7
20260503210059 11 258 3.2 14.5 0.00 0.00 0.00 31 1008.7
20260503205502 10 286 3.2 14.5 0.00 0.00 0.00 32 1007.7
20260503204559 10 268 3.2 17.7 0.00 0.00 0.00 32 1008.7
20260503203959 11 272 4.8 17.7 0.00 0.00 0.00 32 1007.6
20260503203500 10 307 3.2 9.7 0.00 0.00 0.00 35 1007.7
20260503203059 10 283 3.2 16.1 0.00 0.00 0.00 33 1008.8
20260503202459 10 291 4.8 16.1 0.00 0.00 0.00 34 1007.9
20260503201559 10 244 8.0 20.9 0.00 0.00 0.00 33 1009.1
20260503201500 10 271 6.4 20.9 0.00 0.00 0.00 33 1007.8
20260503201000 10 266 4.8 17.7 0.00 0.00 0.00 33 1008.0
20260503200459 10 304 4.8 12.9 0.00 0.00 0.00 34 1007.9
20260503200100 10 302 4.8 11.3 0.00 0.00 0.00 33 1009.1
20260503200000 10 298 4.8 12.9 0.00 0.00 0.00 35 1007.9
20260503195500 10 301 4.8 17.7 0.00 0.00 0.00 33 1007.8
20260503194624 11 297 3.2 12.9 0.00 0.00 0.00 35 1009.1
20260503194509 10 304 3.2 12.9 0.00 0.00 0.00 36 1007.9
20260503193959 10 311 4.8 17.7 0.00 0.00 0.00 36 1007.9
20260503193101 10 284 9.7 25.7 0.00 0.00 0.00 35 1009.3
20260503193035 10 350 3.2 25.7 0.00 0.00 0.00 38 1008.1
20260503192459 10 273 3.2 20.9 0.00 0.00 0.00 36 1008.1
20260503191612 10 281 3.2 11.3 0.00 0.00 0.00 39 1009.5
20260503190958 10 290 3.2 8.0 0.00 0.00 0.00 39 1008.3
20260503190459 10 229 3.2 14.5 0.00 0.00 0.00 42 1008.4
20260503190059 10 273 3.2 14.5 0.00 0.00 0.00 40 1009.6
20260503185000 10 298 3.2 12.9 0.00 0.00 0.00 40 1008.5
20260503183959 8 309 3.2 17.7 0.00 0.00 0.00 45 1008.6
20260503183458 8 289 3.2 17.7 0.00 0.00 0.00 42 1008.8
20260503183105 8 253 4.8 12.9 0.00 0.00 0.00 42 1010.1
20260503181958 8 314 3.2 9.7 0.00 0.00 0.00 44 1008.9
20260503181608 8 298 1.6 12.9 0.00 0.00 0.00 41 1010.2
20260503181002 8 312 4.8 19.3 0.00 0.00 0.00 43 1008.9
20260503180501 8 320 4.8 19.3 0.00 0.00 0.00 45 1009.1
20260503180059 8 271 6.4 17.7 0.00 0.00 0.00 43 1010.2
20260503175501 8 287 4.8 20.9 0.00 0.00 0.00 43 1009.0
20260503175046 8 302 4.8 20.9 0.00 0.00 0.00 42 1008.9
20260503174613 8 307 1.6 16.1 0.00 0.00 0.00 44 1010.1
20260503173958 8 316 4.8 17.7 0.00 0.00 0.00 46 1009.2
20260503173110 7 281 1.6 12.9 0.00 0.00 0.00 52 1010.4
20260503172458 7 283 3.2 11.3 0.00 0.00 0.00 50 1009.2
20260503171958 7 246 3.2 8.0 0.00 0.00 0.00 48 1009.2
20260503171559 7 277 3.2 9.7 0.00 0.00 0.00 48 1010.5
20260503171012 7 293 3.2 9.7 0.00 0.00 0.00 51 1009.4
20260503170458 7 301 3.2 9.7 0.00 0.00 0.00 49 1009.6
20260503151008 6 290 3.2 14.5 0.00 0.00 0.00 55 1009.8
20260503150458 6 310 4.8 9.7 0.00 0.00 0.00 57 1009.9
20260503130959 4 279 3.2 12.9 0.00 0.00 0.00 74 1010.2
20260503130458 3 284 3.2 11.3 0.00 0.00 0.00 73 1010.1
20260503120117 2 271 3.2 14.5 0.00 0.00 0.00 82 1011.2
20260503110457 1 277 1.6 6.4 0.00 0.00 0.00 85 1009.9
20260503090457 1 271 1.6 4.8 0.00 0.00 0.00 84 1009.2
20260503081558 1 304 1.6 6.4 0.00 0.03 0.00 83 1010.4
20260503081000 1 285 1.6 4.8 0.00 0.03 0.00 83 1009.6
20260503071958 1 270 1.6 11.3 0.00 0.03 0.00 83 1009.7
20260503071600 1 285 0.0 12.9 0.00 0.03 0.00 83 1010.7
20260503070957 1 275 1.6 12.9 0.00 0.03 0.00 83 1009.8